Regional Weather Roundup
Issued by NWS Upton, NY

Current Version | Previous Version | Text Only | Print | Product List | Glossary On
Versions: 1 2 3 4 5 6 7 8 9 10 11 12 13 14 15 16 17 18 19 20 21 22 23 24 25 26
000
ASUS41 KOKX 162305
RWROKX

Regional Weather Roundup
National Weather Service New York NY
600 PM EST FRI FEB 16 2018

Note: "FAIR" indicates few or no clouds below 12,000 feet with no
significant weather and/or obstructions to visibility.

NYZ071-072-176-178-NJZ106-104-170000-
New York City Metro Area

CITY           SKY/WX    TMP DP  RH WIND       PRES   REMARKS
Central Park   FAIR      45  33  63 NW10G28   29.87R
Bronx Bot Gard   N/A     43  30  61 NW14      29.86R
Bronx Lehman C   N/A     45  32  61 NW15G28     N/A
LaGuardia Arpt CLOUDY    46  35  65 NW22G29   29.85R
Queens College   N/A     45  34  65 NW14G28     N/A
Kennedy Intl   MOCLDY    46  37  71 NW26      29.85R
Breezy Point     N/A     45 N/A N/A NW18G28     N/A
Brooklyn Coll    N/A     46  36  66 NW15        N/A
Staten Island    N/A     45  34  65 NW14        N/A
Newark/Liberty CLOUDY    45  36  70 NW22G28   29.86R
Teterboro      FAIR      45  32  60 NW15G29   29.87R
$$

NYZ177-179-078>081-170000-
Long Island New York

CITY           SKY/WX    TMP DP  RH WIND       PRES   REMARKS
Jones Beach      N/A     46 N/A N/A NW24G32     N/A
Wantagh          N/A     46  34  61 NW17        N/A
Hempstead        N/A     45  36  70 NW12      29.88R
Matinecock Pt    N/A     45 N/A N/A NW21        N/A
Farmingdale    CLOUDY    46  35  65 NW15G24   29.82R
MacArthur/ISP  MOCLDY    47  39  74 NW14      29.80R
Shirley        CLOUDY    47  43  86 NW10      29.80R
Mt Sinai Harb    N/A    N/A N/A N/A W8          N/A
Westhampton    LGT RAIN  46  43  89 NW10      29.80R
East Hampton   LGT RAIN  45  43  93 NW6       29.78R
Southold         N/A     43  39  87 NW10        N/A
Montauk          N/A     45  40  82 NW12      29.79R
$$

NYZ052-065-067-170000-
Hudson Valley

CITY           SKY/WX    TMP DP  RH WIND       PRES   REMARKS
White Plains   MOCLDY    42  32  67 NW20G29   29.83R
Larchmont Harb   N/A     45 N/A N/A W24G30      N/A
Croton On Huds   N/A     43 N/A N/A NW16        N/A
Somers           N/A     41  32  70 NW9         N/A
Brewster         N/A     41  28  60 NW12G23     N/A
Newburgh       CLOUDY    41  32  70 NW12G21   29.86R
Montgomery     MOCLDY    41  27  57 NW10      29.87R
Otisville        N/A     37  30  75 NW5         N/A  WCI  34
Warwick          N/A     39  30  70 W15G28      N/A  WCI  31
Suffern          N/A     39  30  70 NW13        N/A  WCI  32
Poughkeepsie   CLOUDY    43  26  51 NW9       29.86R
Albany         MOCLDY    36  29  75 W17       29.87R WCI  26
$$

NJZ001-105-106-008-010-013-015-019>022-104-170000-
New Jersey

CITY           SKY/WX    TMP DP  RH WIND       PRES   REMARKS
Newark/Liberty CLOUDY    45  36  70 NW22G28   29.86R
Teterboro      FAIR      45  32  60 NW15G29   29.87R
Caldwell       MOCLDY    43  32  65 NW10G17   29.90R
Somerville     FAIR      45  35  68 N10G24    29.88R
Linden         FAIR      46  36  68 N15G28    29.86R
Perth Amboy      N/A     46 N/A N/A NW18        N/A
Sussex         MOCLDY    40  30  67 CALM      29.91R
Andover          N/A     39  30  70 MISG      29.90R
Trenton        CLOUDY    47  40  76 N14G23    29.87R
Millville      MOCLDY    52  42  69 NW12      29.88R
Atlantic City  CLOUDY    51  47  86 NW15      29.85R
Wrightstown    FAIR      49  44  82 NW10      29.83R
Toms River     FAIR      49  45  86 NW10      29.86R
Belmar         CLOUDY    49  41  74 NW28G33   29.85R
$$

PAZ047>061-062-071-170000-
Eastern Pennsylvania

CITY           SKY/WX    TMP DP  RH WIND       PRES   REMARKS
Philadelphia   CLOUDY    52  40  63 NW15      29.88R
Allentown      MOCLDY    45  32  60 N13G24    29.92R
Scranton       MOCLDY    37  28  70 NW16      29.95R WCI  28
$$

CTZ002-004>006-009-010-012-RIZ004-006-007-MAZ004-011-015-170000-
Southern New England

 In CT

CITY           SKY/WX    TMP DP  RH WIND       PRES   REMARKS
Bradley Intl   MOCLDY    42  28  57 NW15G26   29.82R
Hartford       MOCLDY    44  29  55 NW16G26   29.82R
Danbury        FAIR      45  30  55 NW14G24   29.82R
Wtrbury/Oxford MOCLDY    41  33  73 NW18      29.81R
Norwalk Harbor   N/A     45 N/A N/A NW16G23     N/A
Bridgeport     CLOUDY    49  35  58 NW12      29.80R
Meriden        MOCLDY    44  33  65 N13G22    29.81R
New Haven      CLOUDY    47  37  68 N13G20    29.80R
Chester        CLOUDY    45  36  70 NW12G23   29.79R
Groton         CLOUDY    47  36  65 NW16G25   29.77R
Willimantic    CLOUDY    45  30  55 NW9G22    29.78R

 In RI

CITY           SKY/WX    TMP DP  RH WIND       PRES   REMARKS
Providence     CLOUDY    47  30  51 W22G32    29.73R
Block Island   LGT RAIN  45  41  86 NW13G21   29.76R
Westerly       CLOUDY    47  39  74 NW10G18   29.76R

In MA

CITY           SKY/WX    TMP DP  RH WIND       PRES   REMARKS
Boston         CLOUDY    49  33  54 W18G31    29.69R
Worcester      FAIR      39  27  62 W23G33    29.72R WCI  28
Westfield      FAIR      40  29  64 NW13G23   29.79R WCI  32
Provincetown   CLOUDY    44  36  73 W12       29.68R
Nantucket      LGT RAIN  47  46  97 NW18G24   29.70R
$$

ANZ330-335-338-340-345-350-353-355-170000-
Coastal Marine Observations


STATION/POSITION TIME  SKY/WX   TEMP    WIND        PRES    VSBY  WAVE
                                AIR SEA DIR/SP/G                  HT/PER
                 (UTC)          (F)     (DEG/KT/KT) (MB)    (MI)  (FT/S)
NY Harb Entrance 2250            45 42  330/ 19/ 23 1009.4          4/ 8
20 S Fire Island 2250            45 41  320/ 16/ 19 1009.4          5/ 8
15 E Barnegat Li 2230               41                N/A           5/ 7
Hudson Canyon    2250            49 47  330/ 16/ 19 1008.4          6/ 8
Kings Point      2248            44 37  360/ 23/ 29 1011.7
Execution Rocks  NOT AVBL
Western LI Sound NOT AVBL
Central LI Sound 2230            43     320/ 14/ 16   N/A           1
Robbins Reef     2248            46     310/ 22/ 31 1011.1
$$


>>>>>>>>>>>>>>>>>>>>>>>>>>>> KEY <<<<<<<<<<<<<<<<<<<<<<<<<<<
>                                                          <
>     SKY/WX - Sky Condition/Present Weather               <
>     TMP    - Temperature in Fahrenheit                   <
>     DP     - Dew Point in Fahrenheit                     <
>     RH     - Relative Humidity in Percent                <
>     WIND   - Direction (from) and Speed in MPH           <
>     PRES   - Mean Sea Level Pressure (inches of Hg)      <
>     WCI    - Wind Chill Index                            <
>     VSB    - Visibility in Miles                         <
>     HX     - Heat Index                                  <
>     TC     - Temperature in Celsius                      <
>     VRB    - Varibale Wind Direction                     <
>                                                          <
>>>>>>>>>>>>>>>>>>>>>>>>>>>> KEY <<<<<<<<<<<<<<<<<<<<<<<<<<<




USA.gov is the U.S. government's official web portal to all federal, state and local government web resources and services.